Weather in Verkhniye Peski

Russia / Kurgan Oblast     56°10′53″N   62°36′04″E
temp.,
°C
wind,
m/s
gust,
m/s
humid.,
%
clouds,
%
prec.,
mm/h
press.,
hPa
HPBL,
m
10 may, mon
mon1023:00+15ese2256100 0.0 101924
02:00+13ene476188 0.0 1020113
05:00+11ene386313 0.0 1021170
08:00+15ene574990 0.0 1022433
11:00+18ene673574 0.0 10231381
14:00+19e672938 0.0 10241664
17:00+19e5627100 0.0 10241679
20:00+16e2339100 0.0 102542
11 may, tue
tue1123:00+12ese334174 0.0 102631
02:00+10sse22455 0.0 102710
05:00+9sse11485 0.0 102810
08:00+14s22385 0.0 1029251
11:00+19ssw222919 0.0 10291369
14:00+21sw2225100 0.0 10281687
17:00+21w3325100 0.0 10281689
20:00+18wsw22355 0.0 102812
12 may, wed
wed1223:00+14sw33364 0.0 102823
02:00+13wsw45405 0.0 102868
05:00+11wnw34545 0.0 102849
08:00+16nnw4661100 0.0 1029358
11:00+21nnw574569 0.0 10281327
14:00+23nw5629100 0.0 10271980
17:00+23nnw562784 0.0 10271974
20:00+19n334232 0.0 102735
13 may, thu
thu1323:00+16n2247100 0.0 102711
02:00+15wnw225074 0.0 102716
05:00+13wnw336428 0.0 102842
08:00+18nnw34545 0.0 1028295
11:00+23nw45395 0.0 10271467
14:00+26nnw45305 0.0 10262129
17:00+26nnw452737 0.0 10252263
20:00+22nw333983 0.0 102520
14 may, fri
fri1423:00+18nnw3347100 0.0 102631
02:00+16nnw115517 0.0 102611
05:00+15wnw22592 0.0 102611
08:00+21w23450 0.0 1026239
11:00+26w353228 0.0 10251435
14:00+28w46285 0.0 10232788
17:00+28nw56255 0.0 10222895
20:00+24wnw333957 0.0 102135